Date String (YYYY-MM-DD hh:mm:ss) UTC,Instrument flags,absolute air pressure of the measurement (hPa),sample flow rate (lpm),inlet stack bypass flow (lpm),air temperature of the measurement (°C),ambient temperature measured by the external sensor (°C),aerosol sample conditioner tube jacket temperature (°C),OPC LED temperature (°C),internal box temperature (°C),relative humidity of the measurement (%),span deviation,mass concentration of particles derived from Lorenz-Mie calculation of OPC scattering (μg/m³),mass concentration of particles derived from Lorenz-Mie calculation of OPC scattering (μg/m³),mass concentration of particles derived from Lorenz-Mie calculation of OPC scattering (μg/m³)
DateTimeUTC,F1_M11,P_M11,Q1_M11,Q2_M11,T1_M11,T2_M11,T3_M11,T4_M11,T5_M11,U1_M11,ZSPAN_M11,X2_M11,X0_M11,X1_M11
2023-08-23 10:00:00,SystemResetWarning,0835.1,5.00,000.00,028.4,026.9,000.0,036.7,030.1,22.6,0001.7,0008.21,0013.68,0007.42
2023-08-23 10:01:00,SystemResetWarning,0835.0,4.98,000.00,028.4,025.2,000.0,036.6,029.8,22.6,0001.7,0008.23,0014.02,0007.42
2023-08-23 10:02:00,SystemResetWarning,0835.0,5.02,000.00,028.3,024.5,000.0,036.5,029.6,22.7,0001.7,0008.23,0014.89,0007.41
2023-08-23 10:03:00,SystemResetWarning,0835.0,5.00,000.00,028.2,024.6,000.0,036.5,029.5,22.8,0001.5,0008.27,0015.09,0007.41
2023-08-23 10:04:00,SystemResetWarning,0835.0,5.00,000.00,028.1,025.0,000.0,036.5,029.5,22.9,0001.6,0008.30,0015.20,0007.41
2023-08-23 10:05:00,SystemResetWarning,0835.0,5.00,000.00,028.1,025.3,000.0,036.6,029.6,22.8,0001.3,0008.32,0015.18,0007.42
2023-08-23 10:06:00,SystemResetWarning,0835.0,5.01,000.00,028.1,025.7,000.0,036.6,029.7,22.8,0001.2,0008.34,0015.27,0007.44
2023-08-23 10:07:00,SystemResetWarning,0835.0,5.00,000.00,028.1,026.0,000.0,036.6,029.7,22.8,0001.3,0008.34,0015.25,0007.46
2023-08-23 10:08:00,SystemResetWarning,0835.0,5.00,000.00,028.2,026.2,000.0,036.6,029.8,22.8,0001.3,0008.36,0015.09,0007.47
2023-08-23 10:09:00,SystemResetWarning,0835.0,5.00,000.00,028.2,026.5,000.0,036.6,029.8,22.7,0001.0,0008.35,0014.80,0007.47
2023-08-23 10:10:00,SystemResetWarning,0835.0,5.00,000.00,028.2,026.6,000.0,036.6,029.9,22.7,0000.8,0008.34,0015.39,0007.48
2023-08-23 10:11:00,SystemResetWarning,0835.0,4.99,000.00,028.2,026.8,000.0,036.6,029.9,22.7,0000.4,0008.34,0015.13,0007.48
2023-08-23 10:12:00,SystemResetWarning,0835.0,4.99,000.00,028.3,026.9,000.0,036.7,030.0,22.7,-000.1,0008.34,0015.68,0007.47
2023-08-23 10:13:00,SystemResetWarning,0835.0,5.00,000.00,028.3,027.0,000.0,036.7,030.0,22.7,-000.4,0008.34,0014.81,0007.46
2023-08-23 10:14:00,SystemResetWarning,0835.0,5.00,000.00,028.3,027.1,000.0,036.7,030.0,22.6,-000.5,0008.31,0014.67,0007.45
2023-08-23 10:15:00,SystemResetWarning,0835.0,5.00,000.00,028.4,027.2,000.0,036.7,030.1,22.7,-000.4,0008.30,0014.56,0007.43
2023-08-23 10:16:00,SystemResetWarning,0835.1,5.01,000.00,028.4,027.3,000.0,036.7,030.1,22.7,-000.3,0008.27,0014.59,0007.42
2023-08-23 10:17:00,SystemResetWarning,0835.0,5.01,000.00,028.4,027.0,000.0,036.7,030.1,22.8,0000.0,0008.27,0014.48,0007.41
2023-08-23 10:18:00,SystemResetWarning,0835.0,4.98,000.00,028.4,025.3,000.0,036.6,029.8,22.7,-000.1,0008.26,0014.60,0007.38
2023-08-23 10:19:00,SystemResetWarning,0835.0,5.01,000.00,028.3,024.5,000.0,036.5,029.6,23.0,-000.1,0008.22,0014.59,0007.37
2023-08-23 10:20:00,SystemResetWarning,0835.0,5.00,000.00,028.2,024.6,000.0,036.5,029.5,23.1,0000.0,0008.20,0014.77,0007.37
2023-08-23 10:21:00,SystemResetWarning,0835.0,4.99,000.00,028.1,024.9,000.0,036.6,029.5,22.9,0000.1,0008.20,0014.57,0007.37
2023-08-23 10:22:00,SystemResetWarning,0835.0,4.99,000.00,028.1,025.3,000.0,036.6,029.6,23.0,0000.3,0008.20,0013.98,0007.38
2023-08-23 10:23:00,SystemResetWarning,0835.0,5.00,000.00,028.1,025.6,000.0,036.6,029.6,23.0,0000.6,0008.15,0013.63,0007.38
2023-08-23 10:24:00,SystemResetWarning,0835.1,5.01,000.00,028.1,025.9,000.0,036.6,029.7,23.1,0001.3,0008.17,0013.33,0007.39
2023-08-23 10:25:00,SystemResetWarning,0835.1,5.00,000.00,028.2,026.2,000.0,036.6,029.8,23.0,0001.7,0008.19,0014.22,0007.42
2023-08-23 10:26:00,SystemResetWarning,0835.1,5.00,000.00,028.2,026.4,000.0,036.6,029.8,22.9,0001.8,0008.21,0014.29,0007.44
2023-08-23 10:27:00,SystemResetWarning,0835.1,4.99,000.00,028.2,026.6,000.0,036.6,029.9,23.0,0001.7,0008.25,0014.85,0007.47
2023-08-23 10:28:00,SystemResetWarning,0835.2,5.00,000.00,028.2,026.7,000.0,036.6,029.9,23.1,0001.7,0008.24,0015.48,0007.47
2023-08-23 10:29:00,SystemResetWarning,0835.2,5.00,000.00,028.3,026.9,000.0,036.7,030.0,23.1,0002.1,0008.28,0015.82,0007.49
2023-08-23 10:30:00,SystemResetWarning,0835.2,4.99,000.00,028.3,027.0,000.0,036.7,030.0,23.2,0002.1,0008.33,0015.81,0007.50
2023-08-23 10:31:00,SystemResetWarning,0835.2,5.01,000.00,028.3,027.1,000.0,036.7,030.0,23.0,0002.0,0008.38,0015.74,0007.52
2023-08-23 10:32:00,SystemResetWarning,0835.2,5.00,000.00,028.4,027.2,000.0,036.7,030.1,22.9,0002.0,0008.40,0015.34,0007.53
2023-08-23 10:33:00,SystemResetWarning,0835.3,5.00,000.00,028.4,027.2,000.0,036.7,030.1,22.8,0001.7,0008.46,0015.46,0007.54
2023-08-23 10:34:00,SystemResetWarning,0835.3,5.01,000.00,028.4,027.3,000.0,036.7,030.1,22.6,0001.8,0008.50,0015.26,0007.54
2023-08-23 10:35:00,SystemResetWarning,0835.3,5.00,000.00,028.5,027.2,000.0,036.7,030.2,22.4,0001.8,0008.49,0015.63,0007.54
2023-08-23 10:36:00,SystemResetWarning,0835.2,4.98,000.00,028.4,025.6,000.0,036.6,029.9,22.5,0001.6,0008.49,0015.08,0007.53
2023-08-23 10:37:00,SystemResetWarning,0835.2,5.01,000.00,028.3,024.5,000.0,036.5,029.7,22.7,0001.8,0008.47,0014.92,0007.50
2023-08-23 10:38:00,SystemResetWarning,0835.2,5.01,000.00,028.2,024.6,000.0,036.5,029.5,22.8,0001.7,0008.46,0014.40,0007.48
2023-08-23 10:39:00,SystemResetWarning,0835.2,5.00,000.00,028.2,024.9,000.0,036.6,029.5,22.8,0001.8,0008.46,0013.91,0007.47
2023-08-23 10:40:00,SystemResetWarning,0835.2,4.99,000.00,028.2,025.2,000.0,036.6,029.6,22.9,0001.7,0008.43,0013.77,0007.46
2023-08-23 10:41:00,SystemResetWarning,0835.2,5.01,000.00,028.2,025.6,000.0,036.6,029.7,22.9,0001.9,0008.38,0014.06,0007.44
2023-08-23 10:42:00,SystemResetWarning,0835.2,4.99,000.00,028.2,025.9,000.0,036.6,029.7,22.9,0002.1,0008.33,0014.19,0007.41
2023-08-23 10:43:00,SystemResetWarning,0835.1,4.99,000.00,028.2,026.2,000.0,036.6,029.8,22.7,0002.2,0008.35,0014.78,0007.40
2023-08-23 10:44:00,SystemResetWarning,0835.1,4.99,000.00,028.2,026.4,000.0,036.6,029.8,22.8,0002.5,0008.27,0014.69,0007.38
2023-08-23 10:45:00,SystemResetWarning,0835.2,5.00,000.00,028.2,026.6,000.0,036.7,029.9,22.8,0002.3,0008.28,0015.52,0007.38
2023-08-23 10:46:00,SystemResetWarning,0835.2,5.00,000.00,028.3,026.7,000.0,036.7,029.9,22.8,0001.9,0008.28,0015.61,0007.38
2023-08-23 10:47:00,SystemResetWarning,0835.2,5.00,000.00,028.3,026.9,000.0,036.7,030.0,22.9,0001.8,0008.28,0015.52,0007.38
2023-08-23 10:48:00,SystemResetWarning,0835.2,5.00,000.00,028.3,027.0,000.0,036.7,030.0,23.0,0001.5,0008.27,0015.59,0007.38
2023-08-23 10:49:00,SystemResetWarning,0835.2,5.00,000.00,028.3,027.1,000.0,036.7,030.0,23.1,0001.5,0008.27,0015.72,0007.38
2023-08-23 10:50:00,SystemResetWarning,0835.2,5.01,000.00,028.4,027.1,000.0,036.7,030.1,23.1,0001.1,0008.24,0015.50,0007.38
2023-08-23 10:51:00,SystemResetWarning,0835.2,5.00,000.00,028.4,027.2,000.0,036.7,030.1,23.1,0000.8,0008.22,0015.33,0007.36
2023-08-23 10:52:00,SystemResetWarning,0835.2,5.00,000.00,028.4,027.3,000.0,036.8,030.2,23.0,0000.7,0008.21,0014.82,0007.34
2023-08-23 10:53:00,SystemResetWarning,0835.2,4.99,000.00,028.5,027.2,000.0,036.8,030.2,22.9,0000.4,0008.18,0014.65,0007.34
2023-08-23 10:54:00,SystemResetWarning,0835.2,4.99,000.00,028.4,025.8,000.0,036.7,029.9,22.9,0000.6,0008.15,0014.09,0007.33
2023-08-23 10:55:00,SystemResetWarning,0835.1,5.01,000.00,028.3,024.5,000.0,036.6,029.6,23.1,0001.1,0008.19,0014.09,0007.31
2023-08-23 10:56:00,SystemResetWarning,0835.1,5.01,000.00,028.2,024.5,000.0,036.5,029.5,23.3,0000.7,0008.12,0014.04,0007.28
2023-08-23 10:57:00,SystemResetWarning,0835.2,5.00,000.00,028.1,024.7,000.0,036.6,029.4,23.3,0000.9,0008.06,0014.02,0007.25
2023-08-23 10:58:00,SystemResetWarning,0835.1,5.00,000.00,028.1,025.1,000.0,036.6,029.5,23.2,0001.2,0008.01,0014.47,0007.22
2023-08-23 10:59:00,SystemResetWarning,0835.2,5.00,000.00,028.1,025.5,000.0,036.6,029.6,23.2,0001.2,0007.95,0014.13,0007.18
